Weather History for Eelde, Netherlands

Change the Weather History Date:

Thursday, May 3, 2012

  Actual Average Record
Temperature  
Mean Temperature 52 °F -  
Max Temperature 57 °F 62 °F 80 °F (2006)
Min Temperature 46 °F 44 °F 30 °F (2011)
Degree Days  
Heating Degree Days 14    
Growing Degree Days 2 (Base 50)    
Moisture  
Dew Point 47 °F    
Average Humidity 77    
Maximum Humidity 94    
Minimum Humidity 50    
Precipitation  
Precipitation 0.00 in 0.08 in - ()
Sea Level Pressure  
Sea Level Pressure 29.84 in    
Wind  
Wind Speed 6 mph ()    
Max Wind Speed 12 mph    
Max Gust Speed -    
Visibility 5.3 miles    
Events      
Averages and records for this station are not official NWS values.
T = Trace of Precipitation, MM = Missing Value Source: Averaged Metar Reports

Daily Weather History Graph

Daily Weather History Graph

Search for Another Location

Airport:

Trip Planner

Search our weather history database for the weather conditions in past years. The results will help you decide how hot, cold, wet, or windy it might be!

Date:

Astronomy

May. 03, 2012 Rise Set
Actual Time 5:55 AM CEST 9:06 PM CEST
Civil Twilight 5:15 AM CEST 9:47 PM CEST
Nautical Twilight 4:20 AM CEST 10:42 PM CEST
Astronomical Twilight 3:08 AM CEST 11:56 PM CEST
Moon 5:51 PM CEST (5/3) 4:16 AM CEST (5/3)
Length of Visible Light 16h 32m
Length of Day
15h 10m
Waxing Gibbous, 89% of the Moon is Illuminated
May 3
Waxing Gibbous
May 6
Full
May 12
Last Quarter
May 21
New
May 28
First Quarter

Hourly Weather History & Observations

Time (CEST) Temp. Windchill Dew Point Humidity Pressure Visibility Wind Dir Wind Speed Gust Speed Precip Events Conditions
12:25 AM 53.6 °F - 41.0 °F 62% 29.92 in 6.2 mi East 5.8 mph - N/A   Unknown
12:55 AM 53.6 °F - 41.0 °F 62% 29.92 in 6.2 mi NE 6.9 mph - N/A   Unknown
1:25 AM 53.6 °F - 39.2 °F 58% 29.92 in 6.2 mi NNE 9.2 mph - N/A   Unknown
1:55 AM 53.6 °F - 39.2 °F 58% 29.92 in 6.2 mi NE 10.4 mph - N/A   Unknown
2:00 AM 53 °F - 40 °F 50% 29.91 in 28 mi NE 11.2 mph - -   Overcast
2:25 AM 51.8 °F - 39.2 °F 62% 29.89 in 6.2 mi NE 9.2 mph - N/A   Unknown
2:55 AM 51.8 °F - 39.2 °F 62% 29.89 in 6.2 mi NE 8.1 mph - N/A   Unknown
3:25 AM 51.8 °F - 39.2 °F 62% 29.89 in 6.2 mi NE 8.1 mph - N/A   Unknown
3:55 AM 50.0 °F - 39.2 °F 66% 29.86 in 6.2 mi NE 6.9 mph - N/A   Unknown
4:25 AM 50.0 °F - 41.0 °F 71% 29.86 in 6.2 mi NE 6.9 mph - N/A   Unknown
4:55 AM 50.0 °F - 41.0 °F 71% 29.86 in 6.2 mi NE 6.9 mph - N/A   Unknown
5:00 AM 49 °F - 41 °F 64% 29.87 in 28 mi NE 6.7 mph - -   Partly Cloudy
5:25 AM 48.2 °F - 41.0 °F 76% 29.86 in 6.2 mi NE 5.8 mph - N/A   Unknown
5:55 AM 46.4 °F 44.3 °F 39.2 °F 76% 29.86 in 6.2 mi NE 4.6 mph - N/A   Unknown
6:25 AM 48.2 °F - 41.0 °F 76% 29.86 in 6.2 mi NE 4.6 mph - N/A   Partly Cloudy
6:55 AM 50.0 °F - 41.0 °F 71% 29.86 in 6.2 mi ENE 5.8 mph - N/A   Unknown
7:25 AM 50.0 °F - 42.8 °F 76% 29.86 in 6.2 mi ENE 4.6 mph - N/A   Unknown
7:55 AM 51.8 °F - 41.0 °F 67% 29.86 in 6.2 mi NE 3.5 mph - N/A   Partly Cloudy
8:00 AM 53 °F - 41 °F 54% 29.86 in 25 mi NNE 2.2 mph - -   Overcast
8:25 AM 51.8 °F - 42.8 °F 71% 29.83 in 6.2 mi NW 9.2 mph - N/A   Unknown
8:55 AM 51.8 °F - 42.8 °F 71% 29.86 in 6.2 mi ENE 6.9 mph - N/A   Scattered Clouds
9:25 AM 51.8 °F - 44.6 °F 76% 29.86 in 6.2 mi ESE 3.5 mph - N/A   Partly Cloudy
9:55 AM 51.8 °F - 44.6 °F 76% 29.86 in 6.2 mi SE 3.5 mph - N/A   Partly Cloudy
10:25 AM 53.6 °F - 44.6 °F 72% 29.86 in 6.2 mi Variable 2.3 mph - N/A   Partly Cloudy
10:55 AM 57.2 °F - 44.6 °F 63% 29.86 in 6.2 mi SE 3.5 mph - N/A   Partly Cloudy
11:00 AM 56 °F - 44 °F 55% 29.88 in 17 mi SE 4.5 mph - -   Overcast
11:25 AM 55.4 °F - 44.6 °F 67% 29.86 in 6.2 mi Variable 2.3 mph - N/A   Partly Cloudy
11:55 AM 57.2 °F - 46.4 °F 67% 29.86 in 6.2 mi WSW 3.5 mph - N/A   Partly Cloudy
12:25 PM 57.2 °F - 48.2 °F 72% 29.83 in 6.2 mi SW 5.8 mph - N/A   Unknown
12:55 PM 57.2 °F - 50.0 °F 77% 29.83 in 6.2 mi SSW 8.1 mph - N/A   Overcast
1:25 PM 57.2 °F - 51.8 °F 82% 29.83 in 6.2 mi SSW 9.2 mph - N/A   Overcast
1:55 PM 57.2 °F - 53.6 °F 88% 29.83 in 4.3 mi SW 11.5 mph - N/A   Overcast
2:00 PM 57 °F - 53 °F 80% 29.85 in 4 mi SW 11.2 mph - -   Mist
2:25 PM 55.4 °F - 51.8 °F 88% 29.83 in 4.3 mi WSW 9.2 mph - N/A   Overcast
2:55 PM 55.4 °F - 53.6 °F 94% 29.83 in 5.0 mi WSW 10.4 mph - N/A   Overcast
3:25 PM 55.4 °F - 53.6 °F 94% 29.83 in 5.6 mi WSW 9.2 mph - N/A   Overcast
3:55 PM 55.4 °F - 53.6 °F 94% 29.80 in 5.0 mi SW 10.4 mph - N/A   Overcast
4:25 PM 55.4 °F - 53.6 °F 94% 29.80 in 3.1 mi WSW 10.4 mph - N/A   Overcast
4:55 PM 57.2 °F - 51.8 °F 82% 29.80 in 3.1 mi West 9.2 mph - N/A   Mostly Cloudy
5:00 PM 57 °F - 53 °F 81% 29.81 in 3 mi West 8.9 mph - -   Mist
5:25 PM 57.2 °F - 51.8 °F 82% 29.80 in 3.1 mi West 8.1 mph - N/A   Overcast
5:55 PM 57.2 °F - 51.8 °F 82% 29.80 in 3.1 mi West 6.9 mph - N/A   Mostly Cloudy
6:25 PM 57.2 °F - 51.8 °F 82% 29.80 in - West 8.1 mph - N/A   Overcast
6:55 PM 57.2 °F - 51.8 °F 82% 29.80 in 3.1 mi West 6.9 mph - N/A   Mostly Cloudy
7:25 PM 57.2 °F - 51.8 °F 82% 29.77 in - West 6.9 mph - N/A   Mostly Cloudy
7:55 PM 55.4 °F - 51.8 °F 88% 29.77 in 3.1 mi West 8.1 mph - N/A   Mostly Cloudy
8:00 PM 55 °F - 51 °F 82% 29.79 in 3 mi West 6.7 mph - -   Mist
8:25 PM 55.4 °F - 51.8 °F 88% 29.77 in 3.7 mi West 6.9 mph - N/A   Overcast
8:55 PM 53.6 °F - 51.8 °F 94% 29.77 in 3.7 mi WNW 3.5 mph - N/A   Overcast
9:25 PM 53.6 °F - 51.8 °F 94% 29.77 in 3.7 mi Variable 2.3 mph - N/A   Mostly Cloudy
9:55 PM 53.6 °F - 50.0 °F 88% 29.77 in 3.7 mi SW 2.3 mph - N/A   Unknown
10:25 PM 51.8 °F - 50.0 °F 94% 29.77 in 3.1 mi SW 2.3 mph - N/A   Mist
10:55 PM 53.6 °F - 51.8 °F 94% 29.77 in 3.1 mi SSW 3.5 mph - N/A   Overcast
11:00 PM 53 °F - 51 °F 89% 29.78 in 3 mi SW 4.5 mph - -   Mist
11:25 PM 51.8 °F - 50.0 °F 94% 29.77 in - SW 3.5 mph - N/A   Mostly Cloudy
11:55 PM 53.6 °F - 51.8 °F 94% 29.74 in - SSW 3.5 mph - N/A   Heavy Drizzle